Time,TemperatureF,DewpointF,PressureIn,WindDirection,WindDirectionDegrees,WindSpeedMPH,WindSpeedGustMPH,Humidity,HourlyPrecipIn,Conditions,Clouds,dailyrainin,SoftwareType,DateUTC
2013-05-05 00:02:00,46.0,36.0,28.08,ENE,57,2.0,6.0,68,0.00,,,0.00,,2013-05-05 04:02:00,
2013-05-05 00:12:00,46.0,36.0,28.08,ENE,57,2.0,6.0,68,0.00,,,0.00,,2013-05-05 04:12:00,
2013-05-05 00:23:00,45.0,35.0,28.08,East,84,2.0,4.0,68,0.00,,,0.00,,2013-05-05 04:23:00,
2013-05-05 00:32:00,45.0,35.0,28.09,ENE,60,3.0,6.0,68,0.00,,,0.00,,2013-05-05 04:32:00,
2013-05-05 00:43:00,45.0,35.0,28.09,ENE,60,3.0,6.0,68,0.00,,,0.00,,2013-05-05 04:43:00,
2013-05-05 00:53:00,44.0,34.0,28.09,ENE,65,1.0,2.0,68,0.00,,,0.00,,2013-05-05 04:53:00,
2013-05-05 01:02:00,44.0,34.0,28.09,NE,53,1.0,3.0,69,0.00,,,0.00,,2013-05-05 05:02:00,
2013-05-05 01:12:00,44.0,34.0,28.09,NE,53,1.0,3.0,69,0.00,,,0.00,,2013-05-05 05:12:00,
2013-05-05 01:22:00,43.0,34.0,28.08,ENE,68,1.0,4.0,71,0.00,,,0.00,,2013-05-05 05:22:00,
2013-05-05 01:32:00,42.0,34.0,28.08,NNE,12,1.0,2.0,72,0.00,,,0.00,,2013-05-05 05:32:00,
2013-05-05 01:42:00,42.0,34.0,28.08,NNE,12,1.0,2.0,72,0.00,,,0.00,,2013-05-05 05:42:00,
2013-05-05 01:52:00,42.0,34.0,28.07,ENE,62,0.0,1.0,72,0.00,,,0.00,,2013-05-05 05:52:00,
2013-05-05 02:01:00,42.0,34.0,28.07,NE,34,0.0,2.0,72,0.00,,,0.00,,2013-05-05 06:01:00,
2013-05-05 02:12:00,42.0,34.0,28.07,NE,34,0.0,2.0,72,0.00,,,0.00,,2013-05-05 06:12:00,
2013-05-05 02:21:00,41.0,33.0,28.07,East,82,1.0,2.0,73,0.00,,,0.00,,2013-05-05 06:21:00,
2013-05-05 02:32:00,41.0,33.0,28.07,ENE,68,1.0,1.0,73,0.00,,,0.00,,2013-05-05 06:32:00,
2013-05-05 02:42:00,41.0,33.0,28.07,ENE,68,1.0,1.0,73,0.00,,,0.00,,2013-05-05 06:42:00,
2013-05-05 02:52:00,41.0,33.0,28.06,ENE,68,1.0,1.0,73,0.00,,,0.00,,2013-05-05 06:52:00,
2013-05-05 03:01:00,41.0,33.0,28.06,ENE,73,1.0,3.0,73,0.00,,,0.00,,2013-05-05 07:01:00,
2013-05-05 03:11:00,41.0,33.0,28.06,ENE,73,1.0,3.0,73,0.00,,,0.00,,2013-05-05 07:11:00,
2013-05-05 03:22:00,40.0,33.0,28.06,NE,53,1.0,2.0,75,0.00,,,0.00,,2013-05-05 07:22:00,
2013-05-05 03:32:00,39.0,32.0,28.06,NE,54,0.0,1.0,76,0.00,,,0.00,,2013-05-05 07:32:00,
2013-05-05 03:42:00,39.0,32.0,28.06,NE,54,0.0,1.0,76,0.00,,,0.00,,2013-05-05 07:42:00,
2013-05-05 03:52:00,39.0,32.0,28.07,NE,54,0.0,1.0,77,0.00,,,0.00,,2013-05-05 07:52:00,
2013-05-05 04:02:00,39.0,33.0,28.07,NE,53,0.0,0.0,78,0.00,,,0.00,,2013-05-05 08:02:00,
2013-05-05 04:11:00,39.0,33.0,28.07,NE,53,0.0,0.0,78,0.00,,,0.00,,2013-05-05 08:11:00,
2013-05-05 04:21:00,38.0,32.0,28.07,NE,53,0.0,0.0,79,0.00,,,0.00,,2013-05-05 08:21:00,
2013-05-05 04:32:00,38.0,32.0,28.07,NE,54,0.0,0.0,80,0.00,,,0.00,,2013-05-05 08:32:00,
2013-05-05 04:42:00,38.0,32.0,28.07,NE,54,0.0,0.0,80,0.00,,,0.00,,2013-05-05 08:42:00,
2013-05-05 04:53:00,37.0,32.0,28.07,NE,53,0.0,0.0,81,0.00,,,0.00,,2013-05-05 08:53:00,
2013-05-05 05:01:00,37.0,32.0,28.07,NE,53,0.0,1.0,81,0.00,,,0.00,,2013-05-05 09:01:00,
2013-05-05 05:11:00,37.0,32.0,28.07,NE,53,0.0,1.0,81,0.00,,,0.00,,2013-05-05 09:11:00,
2013-05-05 05:21:00,36.0,31.0,28.07,ENE,75,0.0,1.0,83,0.00,,,0.00,,2013-05-05 09:21:00,
2013-05-05 05:33:00,36.0,32.0,28.07,East,82,1.0,3.0,84,0.00,,,0.00,,2013-05-05 09:33:00,
2013-05-05 05:42:00,36.0,32.0,28.07,East,82,1.0,3.0,84,0.00,,,0.00,,2013-05-05 09:42:00,
2013-05-05 05:52:00,36.0,32.0,28.07,East,86,0.0,1.0,85,0.00,,,0.00,,2013-05-05 09:52:00,
2013-05-05 06:03:00,35.0,32.0,28.07,East,86,0.0,0.0,87,0.00,,,0.00,,2013-05-05 10:03:00,
2013-05-05 06:12:00,35.0,32.0,28.07,East,86,0.0,0.0,87,0.00,,,0.00,,2013-05-05 10:12:00,
2013-05-05 06:22:00,35.0,32.0,28.07,East,86,0.0,0.0,88,0.00,,,0.00,,2013-05-05 10:22:00,
2013-05-05 06:32:00,37.0,33.0,28.08,East,86,0.0,1.0,86,0.00,,,0.00,,2013-05-05 10:32:00,
2013-05-05 06:42:00,37.0,33.0,28.08,East,86,0.0,1.0,86,0.00,,,0.00,,2013-05-05 10:42:00,
2013-05-05 06:53:00,38.0,33.0,28.07,East,86,0.0,1.0,83,0.00,,,0.00,,2013-05-05 10:53:00,
2013-05-05 07:01:00,38.0,33.0,28.08,East,85,2.0,2.0,82,0.00,,,0.00,,2013-05-05 11:01:00,
2013-05-05 07:12:00,38.0,33.0,28.08,East,85,2.0,2.0,82,0.00,,,0.00,,2013-05-05 11:12:00,
2013-05-05 07:22:00,39.0,34.0,28.07,East,100,1.0,2.0,82,0.00,,,0.00,,2013-05-05 11:22:00,
2013-05-05 07:32:00,41.0,35.0,28.07,East,83,2.0,2.0,78,0.00,,,0.00,,2013-05-05 11:32:00,
2013-05-05 07:42:00,41.0,35.0,28.07,East,83,2.0,2.0,78,0.00,,,0.00,,2013-05-05 11:42:00,
2013-05-05 07:52:00,41.0,34.0,28.07,East,96,2.0,4.0,77,0.00,,,0.00,,2013-05-05 11:52:00,
2013-05-05 08:02:00,45.0,36.0,28.07,SE,125,0.0,1.0,71,0.00,,,0.00,,2013-05-05 12:02:00,
2013-05-05 08:11:00,45.0,36.0,28.07,SE,125,0.0,1.0,71,0.00,,,0.00,,2013-05-05 12:11:00,
2013-05-05 08:22:00,47.0,37.0,28.07,SW,233,0.0,1.0,67,0.00,,,0.00,,2013-05-05 12:22:00,
2013-05-05 08:32:00,48.0,36.0,28.07,SW,232,1.0,2.0,64,0.00,,,0.00,,2013-05-05 12:32:00,
2013-05-05 08:42:00,48.0,36.0,28.07,SW,232,1.0,2.0,64,0.00,,,0.00,,2013-05-05 12:42:00,
2013-05-05 08:52:00,49.0,34.0,28.07,ESE,110,2.0,4.0,57,0.00,,,0.00,,2013-05-05 12:52:00,
2013-05-05 09:01:00,50.0,35.0,28.07,NE,46,0.0,4.0,57,0.00,,,0.00,,2013-05-05 13:01:00,
2013-05-05 09:11:00,50.0,35.0,28.07,NE,46,0.0,4.0,57,0.00,,,0.00,,2013-05-05 13:11:00,
2013-05-05 09:21:00,52.0,36.0,28.07,SSW,204,0.0,3.0,54,0.00,,,0.00,,2013-05-05 13:21:00,
2013-05-05 09:32:00,53.0,35.0,28.06,ESE,109,4.0,5.0,50,0.00,,,0.00,,2013-05-05 13:32:00,
2013-05-05 09:42:00,53.0,35.0,28.06,ESE,109,4.0,5.0,50,0.00,,,0.00,,2013-05-05 13:42:00,
2013-05-05 09:52:00,54.0,34.0,28.06,East,101,3.0,5.0,47,0.00,,,0.00,,2013-05-05 13:52:00,
2013-05-05 10:02:00,57.0,34.0,28.06,SSE,163,3.0,5.0,42,0.00,,,0.00,,2013-05-05 14:02:00,
2013-05-05 10:11:00,57.0,34.0,28.06,SSE,163,3.0,5.0,42,0.00,,,0.00,,2013-05-05 14:11:00,
2013-05-05 10:21:00,58.0,34.0,28.05,WNW,282,1.0,5.0,41,0.00,,,0.00,,2013-05-05 14:21:00,
2013-05-05 10:32:00,59.0,36.0,28.05,ENE,65,2.0,6.0,42,0.00,,,0.00,,2013-05-05 14:32:00,
2013-05-05 10:42:00,59.0,36.0,28.05,ENE,65,2.0,6.0,42,0.00,,,0.00,,2013-05-05 14:42:00,
2013-05-05 10:52:00,60.0,35.0,28.04,SE,145,1.0,9.0,39,0.00,,,0.00,,2013-05-05 14:52:00,
2013-05-05 11:02:00,61.0,35.0,28.04,East,98,2.0,5.0,37,0.00,,,0.00,,2013-05-05 15:02:00,
2013-05-05 11:11:00,61.0,35.0,28.04,East,98,2.0,5.0,37,0.00,,,0.00,,2013-05-05 15:11:00,
2013-05-05 11:21:00,62.0,35.0,28.04,WSW,256,2.0,5.0,37,0.00,,,0.00,,2013-05-05 15:21:00,
2013-05-05 11:33:00,63.0,36.0,28.03,SW,228,2.0,5.0,36,0.00,,,0.00,,2013-05-05 15:33:00,
2013-05-05 11:43:00,63.0,36.0,28.03,SW,228,2.0,5.0,36,0.00,,,0.00,,2013-05-05 15:43:00,
2013-05-05 11:53:00,65.0,35.0,28.03,SSE,160,3.0,6.0,33,0.00,,,0.00,,2013-05-05 15:53:00,
2013-05-05 12:03:00,65.0,35.0,28.02,ESE,114,4.0,7.0,33,0.00,,,0.00,,2013-05-05 16:03:00,
2013-05-05 12:12:00,65.0,35.0,28.02,ESE,114,4.0,7.0,33,0.00,,,0.00,,2013-05-05 16:12:00,
2013-05-05 12:23:00,66.0,37.0,28.02,West,266,5.0,8.0,34,0.00,,,0.00,,2013-05-05 16:23:00,
2013-05-05 12:32:00,66.0,38.0,28.01,WSW,256,1.0,8.0,35,0.00,,,0.00,,2013-05-05 16:32:00,
2013-05-05 12:42:00,66.0,38.0,28.01,WSW,256,1.0,8.0,35,0.00,,,0.00,,2013-05-05 16:42:00,
2013-05-05 12:53:00,68.0,36.0,28.01,SW,215,3.0,7.0,31,0.00,,,0.00,,2013-05-05 16:53:00,
2013-05-05 13:02:00,69.0,38.0,28.00,SE,129,3.0,10.0,32,0.00,,,0.00,,2013-05-05 17:02:00,
2013-05-05 13:12:00,69.0,38.0,28.00,SE,129,3.0,10.0,32,0.00,,,0.00,,2013-05-05 17:12:00,
2013-05-05 13:23:00,70.0,36.0,27.99,ESE,119,5.0,7.0,29,0.00,,,0.00,,2013-05-05 17:23:00,
2013-05-05 13:32:00,71.0,36.0,27.99,SSE,150,5.0,7.0,28,0.00,,,0.00,,2013-05-05 17:32:00,
2013-05-05 13:42:00,71.0,36.0,27.99,SSE,150,5.0,7.0,28,0.00,,,0.00,,2013-05-05 17:42:00,
2013-05-05 13:52:00,71.0,35.0,27.99,East,98,6.0,10.0,27,0.00,,,0.00,,2013-05-05 17:52:00,
2013-05-05 14:01:00,71.0,35.0,27.99,SE,139,5.0,11.0,27,0.00,,,0.00,,2013-05-05 18:01:00,
2013-05-05 14:12:00,71.0,35.0,27.99,SE,139,5.0,11.0,27,0.00,,,0.00,,2013-05-05 18:12:00,
2013-05-05 14:21:00,71.0,35.0,27.98,East,79,5.0,10.0,27,0.00,,,0.00,,2013-05-05 18:21:00,
2013-05-05 14:32:00,71.0,35.0,27.98,ESE,118,5.0,10.0,27,0.00,,,0.00,,2013-05-05 18:32:00,
2013-05-05 14:42:00,71.0,35.0,27.98,ESE,118,5.0,10.0,27,0.00,,,0.00,,2013-05-05 18:42:00,
2013-05-05 14:52:00,72.0,35.0,27.97,ENE,63,4.0,12.0,26,0.00,,,0.00,,2013-05-05 18:52:00,
2013-05-05 15:01:00,72.0,34.0,27.97,West,266,3.0,13.0,25,0.00,,,0.00,,2013-05-05 19:01:00,
2013-05-05 15:11:00,72.0,34.0,27.97,West,266,3.0,13.0,25,0.00,,,0.00,,2013-05-05 19:11:00,
2013-05-05 15:21:00,72.0,37.0,27.97,East,87,7.0,16.0,28,0.00,,,0.00,,2013-05-05 19:21:00,
2013-05-05 15:32:00,72.0,35.0,27.96,East,98,7.0,11.0,26,0.00,,,0.00,,2013-05-05 19:32:00,
2013-05-05 15:42:00,72.0,35.0,27.96,East,98,7.0,11.0,26,0.00,,,0.00,,2013-05-05 19:42:00,
2013-05-05 15:52:00,72.0,34.0,27.96,SE,132,6.0,11.0,25,0.00,,,0.00,,2013-05-05 19:52:00,
2013-05-05 16:01:00,72.0,34.0,27.96,ENE,68,8.0,14.0,25,0.00,,,0.00,,2013-05-05 20:01:00,
2013-05-05 16:11:00,72.0,34.0,27.96,ENE,68,8.0,14.0,25,0.00,,,0.00,,2013-05-05 20:11:00,
2013-05-05 16:21:00,72.0,33.0,27.96,East,89,7.0,12.0,24,0.00,,,0.00,,2013-05-05 20:21:00,
2013-05-05 16:32:00,72.0,35.0,27.96,South,169,3.0,14.0,26,0.00,,,0.00,,2013-05-05 20:32:00,
2013-05-05 16:42:00,72.0,35.0,27.96,South,169,3.0,14.0,26,0.00,,,0.00,,2013-05-05 20:42:00,
2013-05-05 16:52:00,71.0,32.0,27.96,East,94,5.0,14.0,24,0.00,,,0.00,,2013-05-05 20:52:00,
2013-05-05 17:02:00,71.0,33.0,27.96,SSW,205,5.0,10.0,25,0.00,,,0.00,,2013-05-05 21:02:00,
2013-05-05 17:11:00,71.0,33.0,27.96,SSW,205,5.0,10.0,25,0.00,,,0.00,,2013-05-05 21:11:00,
2013-05-05 17:21:00,71.0,33.0,27.95,ENE,78,7.0,12.0,25,0.00,,,0.00,,2013-05-05 21:21:00,
2013-05-05 17:33:00,71.0,33.0,27.95,East,94,4.0,10.0,25,0.00,,,0.00,,2013-05-05 21:33:00,
2013-05-05 17:42:00,71.0,33.0,27.95,East,94,4.0,10.0,25,0.00,,,0.00,,2013-05-05 21:42:00,
2013-05-05 17:53:00,71.0,33.0,27.95,East,82,4.0,9.0,25,0.00,,,0.00,,2013-05-05 21:53:00,
2013-05-05 18:01:00,70.0,33.0,27.96,SE,129,3.0,9.0,25,0.00,,,0.00,,2013-05-05 22:01:00,
2013-05-05 18:02:00,70.0,34.0,27.95,East,96,4.0,9.0,26,0.00,,,0.00,,2013-05-05 22:02:00,
2013-05-05 18:12:00,70.0,34.0,27.95,East,96,4.0,9.0,26,0.00,,,0.00,,2013-05-05 22:12:00,
2013-05-05 18:22:00,70.0,33.0,27.96,SE,129,3.0,9.0,25,0.00,,,0.00,,2013-05-05 22:22:00,
2013-05-05 18:33:00,70.0,33.0,27.96,SE,129,3.0,9.0,25,0.00,,,0.00,,2013-05-05 22:33:00,
2013-05-05 18:42:00,70.0,33.0,27.96,SE,129,3.0,9.0,25,0.00,,,0.00,,2013-05-05 22:42:00,
2013-05-05 18:52:00,70.0,33.0,27.96,SE,129,3.0,9.0,25,0.00,,,0.00,,2013-05-05 22:52:00,
2013-05-05 19:32:00,66.0,34.0,27.96,WSW,243,3.0,7.0,31,0.00,,,0.00,,2013-05-05 23:32:00,
2013-05-05 19:42:00,66.0,34.0,27.96,WSW,243,3.0,7.0,31,0.00,,,0.00,,2013-05-05 23:42:00,
2013-05-05 19:52:00,65.0,34.0,27.96,East,101,1.0,5.0,31,0.00,,,0.00,,2013-05-05 23:52:00,
2013-05-05 20:01:00,64.0,34.0,27.97,ESE,122,2.0,6.0,33,0.00,,,0.00,,2013-05-06 00:01:00,
2013-05-05 20:11:00,64.0,34.0,27.97,ESE,122,2.0,6.0,33,0.00,,,0.00,,2013-05-06 00:11:00,
2013-05-05 20:21:00,63.0,33.0,27.97,East,95,4.0,8.0,33,0.00,,,0.00,,2013-05-06 00:21:00,
2013-05-05 20:32:00,62.0,33.0,27.97,ESE,109,2.0,4.0,34,0.00,,,0.00,,2013-05-06 00:32:00,
2013-05-05 20:42:00,62.0,33.0,27.97,ESE,109,2.0,4.0,34,0.00,,,0.00,,2013-05-06 00:42:00,
2013-05-05 20:52:00,61.0,34.0,27.98,ESE,121,2.0,5.0,36,0.00,,,0.00,,2013-05-06 00:52:00,
2013-05-05 21:01:00,60.0,35.0,27.98,East,95,1.0,3.0,39,0.00,,,0.00,,2013-05-06 01:01:00,
2013-05-05 21:11:00,60.0,35.0,27.98,East,95,1.0,3.0,39,0.00,,,0.00,,2013-05-06 01:11:00,
2013-05-05 21:21:00,59.0,37.0,27.99,ESE,108,3.0,4.0,43,0.00,,,0.00,,2013-05-06 01:21:00,
2013-05-05 21:32:00,58.0,37.0,27.99,SE,133,2.0,4.0,45,0.00,,,0.00,,2013-05-06 01:32:00,
2013-05-05 21:42:00,58.0,37.0,27.99,SE,133,2.0,4.0,45,0.00,,,0.00,,2013-05-06 01:42:00,
2013-05-05 21:52:00,57.0,38.0,27.99,East,79,2.0,6.0,48,0.00,,,0.00,,2013-05-06 01:52:00,
2013-05-05 22:02:00,56.0,38.0,27.99,ESE,116,3.0,7.0,51,0.00,,,0.00,,2013-05-06 02:02:00,
2013-05-05 22:12:00,56.0,38.0,27.99,ESE,116,3.0,7.0,51,0.00,,,0.00,,2013-05-06 02:12:00,
2013-05-05 22:21:00,56.0,39.0,28.00,East,86,4.0,6.0,52,0.00,,,0.00,,2013-05-06 02:21:00,
2013-05-05 22:32:00,55.0,39.0,28.00,SE,126,2.0,4.0,54,0.00,,,0.00,,2013-05-06 02:32:00,
2013-05-05 22:42:00,55.0,39.0,28.00,SE,126,2.0,4.0,54,0.00,,,0.00,,2013-05-06 02:42:00,
2013-05-05 22:52:00,54.0,39.0,28.00,ESE,111,1.0,3.0,56,0.00,,,0.00,,2013-05-06 02:52:00,
2013-05-05 23:02:00,53.0,39.0,28.00,East,82,2.0,4.0,58,0.00,,,0.00,,2013-05-06 03:02:00,
2013-05-05 23:11:00,53.0,39.0,28.00,East,82,2.0,4.0,58,0.00,,,0.00,,2013-05-06 03:11:00,
2013-05-05 23:22:00,52.0,39.0,28.00,NE,44,1.0,2.0,61,0.00,,,0.00,,2013-05-06 03:22:00,
2013-05-05 23:33:00,51.0,38.0,28.00,NNW,348,1.0,2.0,62,0.00,,,0.00,,2013-05-06 03:33:00,
2013-05-05 23:42:00,51.0,38.0,28.00,NNW,348,1.0,2.0,62,0.00,,,0.00,,2013-05-06 03:42:00,
2013-05-05 23:53:00,50.0,39.0,28.00,ENE,73,2.0,4.0,66,0.00,,,0.00,,2013-05-06 03:53:00,